Regional Weather Roundup
Issued by NWS

Home | Current Version | Previous Version | Graphics & Text | Print | Product List | Glossary Off
Versions: 1 2 3 4 5 6 7 8 9 10 11 12 13 14 15 16 17 18 19 20 21 22 23 24 25 26 27 28 29 30 31 32 33 34 35 36 37 38 39 40 41 42 43 44 45 46 47 48 49 50

000
ASUS43 KTOP 011008
RWRKS

WEATHER ROUNDUP FOR KANSAS
NATIONAL WEATHER SERVICE GOODLAND KS
400 AM CST SUN FEB 01 2015

NOTE:  "FAIR" INDICATES FEW OR NO CLOUDS BELOW 12,000 FEET WITH NO
SIGNIFICANT WEATHER AND/OR OBSTRUCTIONS TO VISIBILITY.

KSZ001>006-013>018-027>032-041>047-011100-
NORTHWEST KANSAS

CITY           SKY/WX    TMP DP  RH WIND       PRES   REMARKS
GOODLAND       CLOUDY    20  17  88 N25G35    29.98R WCI   2
HAYS           CLOUDY    27  16  63 NW28G36   29.89R WCI  11
HILL CITY      MIX PCPN  23  18  81 N26G36    29.95R WCI   6
RUSSELL        CLOUDY    27  24  89 NW30G37   29.85R WCI  11
$$

KSZ061>065-074>080-084>089-011100-
SOUTHWEST KANSAS

CITY           SKY/WX    TMP DP  RH WIND       PRES   REMARKS
DODGE CITY     CLOUDY    29  25  85 N22G39    29.89R WCI  15
ELKHART          N/A     37  27  67 N16         N/A  WCI  28
GARDEN CITY    CLOUDY    27  23  85 N26G39    29.92R WCI  12
LIBERAL        CLOUDY    36  30  80 N22       29.93R WCI  24
PRATT          CLOUDY    32  32 100 NW25G32   29.82R WCI  19
$$

KSZ066>073-081>083-090>101-011100-
SOUTHEAST KANSAS

CITY           SKY/WX    TMP DP  RH WIND       PRES   REMARKS
CHANUTE        LGT RAIN  41  40  96 S8        29.74F FOG
COFFEYVILLE    LGT RAIN  41  41 100 S9        29.76F FOG
HUTCHINSON     LGT SNOW  34  31  88 NW20G29   29.76R FOG     WCI  23
MEDICINE LODGE   N/A     35  33  92 NW18G29   29.80R WCI  24
NEWTON         CLOUDY    41  36  81 W12       29.72S
PARSONS        LGT RAIN  41  41 100 SW6       29.76F FOG
WICHITA INTL   CLOUDY    42  41  96 W15G21    29.72F
WICHITA JABRA  LGT RAIN  41  41 100 W8        29.71F
WICHITA MCCONL LGT RAIN  42  40  96 SW10      29.72S
WINFIELD       LGT RAIN  42  29  59 SW13      29.75F
$$

KSZ007>012-019>026-033>040-048>060-102>105-011100-
NORTHEAST KANSAS

CITY           SKY/WX    TMP DP  RH WIND       PRES   REMARKS
CONCORDIA      LGT SNOW  32  32 100 NW16      29.77S FOG     WCI  21
EMPORIA        LGT RAIN  40  40 100 SW10      29.70F WCI  33
LAWRENCE       LGT RAIN  33  32  96 E7        29.74F FOG
MANHATTAN      LGT RAIN  34  34 100 N7        29.73S FOG
MARYSVILLE     LGT SNOW  32  32 100 N3        29.74S
OLATHE IND     LGT RAIN  36  35  96 SE7       29.74F FOG
OLATHE EXE     LGT RAIN  35  34  96 S6        29.73F FOG
SALINA         LGT SNOW  34  32  92 NW21      29.77R FOG     WCI  22
TOPEKA BILLARD LGT RAIN  34  33  96 NE3       29.72F FOG
TOPEKA FORBES  LGT RAIN  39  37  92 SE5       29.71F FOG
$$



USA.gov is the U.S. government's official web portal to all federal, state and local government web resources and services.